Wind_Speed
8 11 8 4 2 5 1 2 11 9 5 6 17 10 11 15 1 4 20 19 18 17 16 15 14 15 15 15 15 15 15 15 16 16 16 16 16 16 16 16 15 15 15 15 15 15 16 17 18
8 5 4 2 4 5 3 3 9 9 17 27 19 12 13 5 12 25 24 20 18 16 16 15 15 14 14 14 14 15 15 15 15 16 15 15 14 14 15 15 15 16 16 15 15 15 15 17 17
10 9 8 3 2 3 4 2 10 19 18 7 9 15 6 10 28 28 22 19 17 17 16 16 15 15 14 14 14 15 15 15 15 16 14 15 13 14 15 16 17 16 16 15 15 15 15 15 17
9 2 4 3 2 2 6 4 18 15 15 16 21 9 13 17 20 23 22 17 17 15 15 15 15 15 14 14 15 15 15 15 15 14 14 13 14 16 17 17 16 16 16 16 16 16 15 14 12
13 4 2 2 4 4 2 17 18 9 13 20 15 10 11 19 22 22 20 18 16 17 14 13 14 14 14 14 15 15 15 15 15 14 13 13 14 15 16 17 16 15 14 15 16 17 17 16 12
6 3 3 2 3 3 4 17 19 19 23 24 22 20 9 27 24 22 17 15 10 13 13 12 14 14 13 13 14 14 15 14 14 12 12 14 15 15 16 16 15 14 14 15 16 16 14 12 10
7 2 2 3 4 3 5 11 19 23 25 12 25 9 20 30 23 21 19 16 14 14 13 13 13 13 14 15 15 15 15 15 14 13 14 15 16 17 17 15 14 13 12 12 12 12 11 8 7
7 4 3 4 2 6 2 8 25 29 11 26 32 7 17 33 27 23 20 17 18 15 14 12 13 14 14 15 15 16 16 17 18 18 18 18 17 15 14 12 12 10 7 6 7 8 7 5 8
6 3 3 4 6 8 20 13 26 17 28 15 9 28 29 29 27 26 22 20 18 17 15 13 14 16 14 15 17 18 19 19 20 20 20 18 17 15 13 12 9 7 6 6 6 7 4 2 3
3 1 5 3 2 5 22 25 19 13 17 19 27 27 27 31 33 28 24 22 17 15 16 13 14 18 17 18 20 22 24 24 22 19 17 16 16 15 12 10 7 5 3 4 5 6 5 1 1
2 4 3 7 17 13 19 20 17 25 13 33 31 32 27 27 30 23 22 19 12 11 14 13 17 20 22 22 24 24 23 22 16 13 11 13 14 14 11 9 7 3 1 2 8 4 3 4 3
3 12 13 10 13 16 13 18 13 22 16 37 38 37 30 26 30 27 25 19 18 14 14 15 18 20 25 23 24 22 19 15 15 16 12 7 8 9 8 6 6 4 5 1 3 4 2 4 2
3 8 7 12 14 9 20 7 10 19 34 36 34 34 29 30 29 26 20 18 18 17 18 17 18 21 22 23 21 18 15 13 12 14 5 6 8 7 3 7 3 3 4 6 5 4 3 3 5
6 14 14 17 11 21 14 5 13 25 35 33 34 31 26 29 30 28 24 24 22 18 21 20 17 18 17 18 15 17 15 11 14 11 9 8 10 6 7 7 10 6 5 7 3 2 2 4 6
15 9 4 7 13 6 20 5 10 29 33 32 31 27 24 25 28 27 28 28 24 22 24 21 18 18 17 15 15 15 14 13 12 11 8 5 4 5 7 5 10 5 3 1 2 2 3 5 1
4 4 4 4 8 3 7 4 4 31 32 30 33 29 26 26 24 29 31 32 25 25 25 22 22 22 21 17 15 18 16 14 13 12 7 4 5 4 3 4 5 4 2 4 2 3 5 4 5
5 1 2 6 2 3 4 3 7 28 31 27 29 28 27 24 29 31 33 29 25 24 24 22 24 25 25 22 19 18 18 19 13 11 9 7 7 5 3 3 3 2 2 2 1 3 4 5 7
3 2 1 4 1 13 4 1 7 3 5 18 27 30 30 27 34 32 31 26 24 24 22 22 16 26 29 28 24 18 18 13 13 8 7 8 14 10 8 6 7 6 7 9 9 10 10 9 11
6 3 5 5 6 2 5 4 3 11 10 9 10 19 29 26 36 32 29 26 24 23 24 22 18 16 19 30 30 22 17 13 13 11 10 7 12 14 14 13 10 12 15 17 14 16 13 14 15
3 4 5 4 4 4 14 7 1 6 9 10 10 13 17 13 33 36 34 30 29 26 26 23 19 19 15 14 29 23 16 11 11 18 14 11 20 19 16 15 15 15 15 15 15 11 10 13 11
9 4 4 4 3 12 5 6 4 3 12 20 18 21 22 20 24 38 36 34 31 30 29 27 22 23 21 17 20 25 20 14 11 11 17 16 20 15 14 11 12 15 18 17 15 11 9 9 14
1 9 13 9 4 3 2 4 7 9 5 9 23 23 27 16 8 34 40 36 35 33 31 28 22 26 25 23 19 21 22 17 16 15 13 19 20 18 15 13 15 13 16 12 11 10 9 8 8
9 10 1 3 4 6 5 3 7 5 5 10 14 8 11 6 13 15 42 42 38 33 34 30 25 28 28 25 21 23 24 21 19 17 16 15 17 21 21 20 17 18 15 10 12 11 9 6 3
2 4 3 3 3 3 5 4 4 5 6 5 11 9 8 15 20 26 43 44 40 35 31 33 29 29 30 28 26 24 24 20 19 20 21 21 23 24 29 31 28 24 24 19 14 13 8 8 7
6 4 2 3 1 6 2 5 9 5 3 14 17 15 7 4 25 21 35 38 45 42 33 33 37 32 33 32 29 26 28 26 23 23 19 19 21 22 24 26 26 20 20 20 14 9 6 6 9
2 6 5 6 5 3 2 6 6 4 14 20 28 24 18 15 42 36 27 47 47 43 41 40 41 38 35 32 28 27 27 26 24 21 8 11 13 15 12 9 11 13 11 10 10 9 7 5 8
3 5 8 3 2 3 5 4 4 2 3 13 14 19 21 20 18 18 25 35 35 37 40 43 41 39 34 31 28 21 23 20 17 10 5 5 8 7 8 10 9 7 9 11 11 11 10 9 8
6 1 4 3 2 4 3 3 5 9 8 2 4 18 20 11 9 8 18 26 34 35 40 35 34 35 33 31 25 19 16 11 9 7 4 7 7 7 6 8 8 9 10 12 11 11 9 8 11
5 4 2 2 5 5 2 5 6 11 11 14 11 15 16 16 8 9 9 14 20 26 32 34 30 28 26 20 16 13 11 8 8 6 8 9 7 5 4 4 5 6 7 8 10 9 8 9 8
5 5 5 4 8 2 4 5 7 7 13 21 18 19 17 13 13 11 12 11 11 16 22 23 21 16 12 11 10 11 10 10 11 10 11 9 5 4 5 6 7 8 8 9 9 6 7 8 6
Wind_Direction
325 310 317 12 13 84 59 111 112 97 58 82 122 114 112 36 57 165 136 160 168 156 152 147 143 137 133 132 127 124 121 118 117 116 115 116 114 113 116 116 112 114 113 113 113 116 118 122 125
10 344 14 28 68 93 346 88 91 105 127 99 85 87 51 76 95 132 142 152 157 154 151 149 146 141 138 135 131 127 124 120 118 118 118 112 109 113 116 116 113 111 113 115 116 118 123 127 129
35 149 354 42 304 129 132 207 112 129 139 121 113 76 74 104 123 143 135 139 152 151 151 147 145 144 142 140 136 130 125 121 123 117 115 112 108 115 117 119 115 114 115 114 114 116 122 129 131
145 66 6 35 198 173 146 143 111 102 98 87 107 73 109 132 139 139 137 134 143 142 149 150 150 146 144 138 132 130 126 128 124 121 117 120 117 115 120 117 117 115 112 108 106 105 117 119 123
133 89 99 299 282 106 99 130 128 111 80 95 104 119 106 147 145 137 143 143 145 143 149 152 152 149 146 138 134 136 133 132 124 125 128 121 123 122 122 119 117 113 108 102 98 99 107 117 123
64 37 35 341 274 122 159 150 122 103 107 107 105 116 112 148 152 151 139 133 136 144 145 154 154 154 150 139 139 135 136 130 125 124 126 130 130 126 124 121 119 113 107 99 92 92 100 120 135
104 50 244 243 158 140 162 153 131 129 130 128 131 117 143 160 159 152 142 132 134 142 145 153 156 150 146 147 142 137 134 127 124 123 129 134 131 130 124 120 115 108 100 94 96 98 106 131 137
115 139 270 239 236 91 242 183 144 144 138 137 132 152 164 167 163 154 148 132 111 125 135 146 152 150 146 144 137 132 128 127 127 129 131 130 125 122 118 113 105 100 98 100 103 103 104 131 119
94 49 281 233 137 119 116 115 156 149 138 149 212 151 156 164 158 162 152 137 122 123 129 124 150 147 143 141 138 133 130 128 125 125 123 122 121 124 123 122 119 129 138 137 130 120 124 161 149
96 164 252 124 55 101 129 134 149 131 145 113 121 145 149 154 164 165 159 150 141 128 129 120 141 142 140 137 135 131 125 122 120 119 121 127 125 131 130 123 125 132 139 167 168 115 98 75 251
175 226 232 212 156 155 139 153 137 131 144 147 148 152 158 158 170 165 166 158 135 137 140 131 132 137 133 134 134 129 128 126 126 124 128 131 133 130 128 122 129 114 34 33 12 344 89 76 348
264 246 259 108 221 173 158 160 155 154 170 158 152 157 162 167 169 171 171 166 161 167 151 136 127 136 130 131 141 131 128 124 135 134 129 140 148 137 138 146 136 181 358 206 125 40 81 115 13
224 280 311 115 145 109 117 61 158 129 148 154 154 159 172 178 181 186 186 178 180 177 163 148 134 141 135 133 142 142 130 132 146 130 136 143 155 115 174 207 182 196 153 203 168 62 65 42 351
224 260 273 152 141 105 107 101 110 141 149 153 158 168 181 188 191 189 186 175 181 174 165 160 146 149 156 152 150 142 139 133 136 128 139 157 145 148 142 190 160 132 140 146 133 75 34 4 346
310 290 124 153 133 129 113 35 123 153 154 157 167 175 190 197 198 202 187 176 178 177 170 175 169 171 178 185 174 166 154 151 155 128 133 159 152 130 128 146 164 96 118 91 149 237 313 254 145
359 50 7 337 28 111 81 237 124 158 158 166 174 180 197 207 196 180 179 175 181 181 181 183 184 185 188 193 172 169 176 179 172 161 150 157 178 174 161 136 116 91 7 172 224 145 96 231 254
344 241 273 311 119 197 85 208 228 173 168 172 178 188 199 206 189 180 180 183 189 192 194 198 201 197 194 196 180 179 194 189 186 185 199 182 199 220 210 193 211 225 59 113 192 176 246 287 287
291 188 162 248 220 1 346 319 313 122 97 181 187 194 204 200 184 183 184 188 192 197 201 205 212 210 193 197 191 186 179 177 193 194 197 228 215 204 194 205 212 225 229 249 254 275 275 282 300
287 278 181 221 358 343 236 217 274 118 90 357 291 220 209 203 186 186 188 192 196 199 201 210 205 185 198 205 201 193 190 189 190 212 218 227 211 209 211 218 215 232 243 258 279 270 276 292 292
237 232 248 7 75 108 25 342 343 55 162 217 253 228 215 218 187 187 189 194 200 201 206 213 215 200 195 198 201 198 194 208 222 214 231 209 197 205 220 234 244 252 267 270 272 271 281 279 277
259 242 200 140 19 70 42 309 327 251 227 217 219 213 208 228 203 189 193 197 202 204 210 214 216 209 206 200 196 211 205 212 226 229 235 210 196 203 211 236 257 270 278 282 275 262 272 271 282
328 249 257 123 96 150 134 273 243 224 248 273 243 218 216 211 198 207 198 198 208 214 215 214 219 214 207 203 200 195 200 219 236 228 216 203 212 220 239 252 266 262 264 280 283 266 272 276 279
231 347 358 149 188 133 211 158 262 44 270 247 250 246 242 233 230 253 211 209 213 215 215 216 219 217 215 209 205 207 212 222 228 238 237 232 240 234 236 270 266 269 257 276 259 268 271 270 248
70 4 328 63 77 328 231 128 255 205 216 121 48 33 338 312 291 271 224 210 211 213 221 222 218 215 214 214 217 220 220 228 235 241 246 247 243 254 268 264 261 281 261 270 274 268 261 257 246
172 114 31 337 120 224 148 116 252 169 143 132 117 102 129 298 278 278 226 215 214 210 213 220 219 216 213 215 216 220 229 236 243 247 257 264 262 257 255 258 263 266 256 261 252 230 231 235 216
48 140 171 206 218 235 337 227 254 102 139 138 147 151 154 159 235 252 259 221 216 215 210 216 216 216 214 214 215 218 227 235 239 248 258 261 256 256 248 257 254 246 233 220 218 230 215 200 186
143 177 191 210 13 110 202 279 281 147 155 115 141 137 137 166 243 258 250 221 213 208 210 216 217 214 213 215 220 233 233 229 217 240 250 247 235 223 222 234 228 225 221 228 226 236 238 221 187
200 351 354 16 259 274 264 262 235 197 165 94 220 113 122 136 131 126 184 195 201 206 212 211 216 212 214 218 229 233 213 208 228 229 206 182 181 182 214 226 234 235 229 224 217 220 224 220 222
6 15 284 140 145 215 202 251 322 186 167 154 145 110 111 116 115 100 136 169 176 185 192 201 215 220 207 217 216 207 207 222 208 185 173 166 182 178 192 216 218 209 215 224 232 235 218 191 173
148 165 118 96 308 293 178 286 344 127 143 142 131 121 123 126 133 133 127 142 166 158 172 182 179 186 195 202 205 212 217 199 178 169 165 157 176 223 247 239 233 235 238 244 237 208 182 174 173
Height
1518 1516 1515 1515 1523 1520 1525 1517 1506 1512 1516 1517 1513 1516 1522 1525 1525 1542 1538 1541 1544 1546 1548 1550 1551 1551 1552 1553 1554 1555 1557 1558 1559 1560 1561 1562 1563 1564 1566 1567 1568 1569 1569 1570 1570 1570 1570 1570 1570
1517 1513 1513 1514 1527 1535 1533 1513 1517 1513 1517 1515 1518 1521 1522 1531 1529 1533 1538 1543 1546 1547 1549 1551 1552 1553 1554 1554 1556 1557 1558 1560 1561 1563 1564 1565 1566 1567 1569 1570 1571 1572 1572 1573 1573 1573 1573 1574 1575
1515 1513 1517 1520 1525 1535 1533 1514 1514 1516 1516 1514 1520 1524 1528 1534 1534 1536 1540 1543 1546 1547 1550 1551 1553 1554 1555 1556 1558 1559 1560 1562 1563 1565 1566 1567 1568 1570 1571 1572 1574 1574 1575 1575 1576 1576 1576 1577 1578
1519 1522 1526 1530 1523 1513 1513 1514 1512 1515 1518 1517 1520 1527 1533 1533 1536 1537 1541 1545 1547 1549 1551 1552 1554 1555 1556 1558 1560 1561 1562 1564 1565 1567 1568 1569 1570 1572 1574 1575 1577 1577 1577 1577 1578 1579 1579 1580 1581
1524 1525 1531 1531 1521 1511 1511 1512 1513 1516 1519 1521 1520 1531 1533 1537 1538 1540 1543 1547 1547 1549 1551 1553 1554 1556 1557 1559 1561 1562 1564 1565 1567 1569 1571 1572 1574 1576 1577 1579 1580 1581 1581 1581 1581 1581 1583 1583 1583
1523 1523 1535 1538 1522 1511 1512 1512 1514 1517 1522 1526 1527 1530 1537 1539 1540 1542 1545 1547 1549 1550 1552 1554 1555 1557 1559 1561 1562 1564 1566 1569 1571 1572 1573 1574 1575 1578 1580 1582 1583 1583 1584 1584 1586 1587 1587 1586 1585
1526 1531 1535 1528 1521 1519 1514 1512 1513 1520 1524 1528 1528 1533 1540 1541 1542 1544 1547 1549 1550 1551 1552 1555 1557 1558 1559 1560 1563 1565 1569 1571 1572 1573 1574 1575 1577 1579 1582 1584 1585 1586 1588 1588 1587 1589 1589 1587 1586
1525 1531 1532 1523 1522 1517 1514 1514 1520 1518 1525 1529 1529 1533 1539 1540 1543 1546 1549 1551 1551 1553 1554 1556 1557 1558 1560 1562 1565 1568 1570 1571 1571 1572 1574 1576 1578 1582 1585 1587 1588 1589 1589 1589 1589 1590 1590 1589 1588
1523 1532 1533 1519 1517 1517 1510 1513 1522 1523 1524 1528 1529 1531 1536 1540 1545 1547 1550 1552 1553 1555 1556 1556 1557 1558 1560 1563 1565 1568 1570 1571 1573 1574 1576 1578 1581 1583 1584 1585 1587 1587 1587 1588 1588 1590 1591 1590 1589
1527 1534 1523 1512 1508 1514 1512 1511 1519 1525 1531 1532 1533 1538 1540 1542 1543 1546 1549 1551 1554 1555 1556 1557 1558 1558 1561 1564 1567 1569 1570 1573 1576 1577 1579 1579 1580 1582 1583 1586 1588 1588 1589 1589 1588 1589 1590 1590 1587
1527 1528 1514 1513 1512 1514 1513 1515 1516 1523 1531 1527 1532 1538 1542 1544 1546 1547 1549 1551 1553 1556 1557 1558 1559 1560 1562 1566 1569 1571 1573 1576 1578 1579 1580 1582 1583 1584 1585 1586 1587 1588 1589 1590 1590 1591 1591 1591 1589
1528 1515 1513 1513 1516 1512 1514 1514 1516 1517 1523 1526 1528 1533 1539 1543 1544 1546 1548 1550 1553 1556 1559 1559 1561 1562 1564 1567 1571 1574 1576 1578 1579 1581 1582 1583 1585 1585 1585 1586 1585 1586 1588 1590 1591 1591 1590 1590 1588
1528 1513 1510 1511 1511 1512 1514 1517 1516 1520 1525 1530 1533 1537 1539 1541 1544 1546 1548 1551 1552 1556 1560 1561 1563 1565 1566 1569 1572 1574 1577 1578 1580 1581 1582 1584 1584 1583 1584 1586 1586 1586 1587 1589 1590 1591 1590 1590 1589
1520 1519 1512 1512 1513 1513 1516 1517 1518 1527 1528 1532 1534 1536 1538 1540 1543 1547 1549 1552 1553 1556 1560 1562 1564 1565 1567 1570 1572 1574 1577 1579 1581 1583 1583 1585 1585 1585 1585 1584 1587 1589 1589 1590 1590 1589 1589 1589 1588
1519 1516 1511 1512 1512 1515 1514 1521 1523 1525 1528 1530 1533 1535 1538 1538 1541 1543 1547 1550 1552 1556 1559 1561 1563 1566 1567 1569 1571 1572 1576 1578 1582 1583 1585 1586 1585 1585 1586 1586 1587 1589 1591 1591 1590 1588 1587 1588 1588
1523 1522 1539 1518 1515 1517 1516 1536 1522 1524 1525 1527 1529 1531 1534 1536 1538 1541 1544 1548 1552 1554 1559 1562 1564 1566 1568 1569 1571 1572 1575 1578 1580 1583 1583 1584 1584 1585 1585 1586 1587 1588 1589 1588 1588 1587 1585 1587 1586
1533 1541 1541 1527 1517 1518 1521 1531 1522 1521 1522 1526 1528 1530 1532 1535 1539 1540 1541 1546 1549 1552 1556 1561 1563 1565 1568 1570 1571 1573 1576 1578 1580 1582 1583 1585 1584 1584 1583 1584 1584 1585 1587 1588 1587 1586 1586 1585 1585
1544 1538 1536 1532 1516 1515 1525 1525 1523 1529 1531 1530 1529 1528 1529 1530 1535 1539 1542 1544 1547 1551 1555 1559 1562 1563 1566 1568 1569 1571 1573 1576 1578 1580 1583 1584 1585 1586 1584 1582 1583 1584 1586 1588 1588 1586 1585 1583 1581
1533 1530 1531 1521 1517 1526 1526 1526 1528 1528 1528 1532 1533 1530 1530 1530 1530 1535 1540 1543 1546 1549 1553 1556 1560 1563 1565 1566 1567 1570 1572 1574 1576 1576 1579 1580 1580 1582 1582 1582 1582 1582 1583 1583 1583 1582 1581 1581 1579
1533 1534 1532 1527 1523 1521 1530 1533 1529 1526 1521 1524 1527 1526 1528 1531 1532 1533 1535 1538 1541 1544 1548 1552 1556 1560 1564 1566 1568 1570 1572 1572 1572 1573 1573 1574 1576 1579 1580 1581 1581 1580 1579 1579 1578 1577 1576 1576 1575
1527 1531 1529 1529 1526 1528 1537 1538 1533 1525 1521 1512 1515 1517 1520 1526 1531 1530 1531 1533 1538 1541 1544 1546 1550 1555 1560 1566 1568 1569 1570 1570 1571 1570 1569 1571 1575 1576 1577 1578 1577 1576 1574 1572 1572 1572 1572 1572 1571
1537 1511 1513 1526 1535 1549 1542 1558 1537 1522 1518 1514 1511 1513 1517 1522 1528 1533 1527 1530 1532 1535 1541 1544 1548 1550 1554 1559 1562 1565 1566 1566 1567 1569 1568 1568 1570 1571 1572 1572 1569 1568 1567 1567 1569 1568 1567 1567 1567
1522 1517 1519 1525 1535 1541 1540 1553 1526 1520 1520 1512 1510 1516 1517 1520 1524 1529 1526 1521 1526 1532 1537 1540 1544 1548 1553 1558 1561 1561 1562 1562 1562 1563 1564 1565 1566 1565 1563 1565 1565 1563 1563 1564 1564 1565 1566 1565 1564
1515 1518 1528 1530 1542 1558 1529 1535 1529 1524 1507 1509 1513 1512 1512 1514 1519 1520 1523 1520 1524 1528 1535 1541 1543 1546 1550 1553 1556 1558 1558 1559 1559 1559 1559 1560 1559 1559 1558 1558 1558 1558 1559 1560 1562 1562 1563 1563 1562
1518 1525 1551 1552 1557 1555 1534 1539 1518 1511 1505 1506 1512 1513 1516 1518 1516 1517 1523 1524 1524 1524 1528 1535 1542 1545 1547 1549 1551 1553 1553 1552 1553 1553 1555 1556 1555 1555 1553 1553 1553 1552 1554 1555 1560 1560 1561 1561 1560
1511 1518 1543 1553 1553 1544 1533 1541 1512 1503 1506 1508 1508 1509 1508 1504 1508 1510 1521 1518 1519 1521 1527 1527 1536 1543 1543 1545 1547 1546 1548 1549 1549 1549 1551 1551 1550 1551 1550 1550 1552 1552 1553 1555 1559 1560 1560 1560 1560
1515 1523 1499 1522 1523 1542 1535 1518 1508 1506 1512 1512 1516 1513 1507 1511 1515 1513 1512 1513 1513 1517 1521 1521 1527 1534 1541 1542 1541 1540 1542 1543 1545 1545 1546 1548 1547 1549 1550 1551 1551 1552 1554 1556 1558 1559 1559 1559 1559
1500 1496 1517 1523 1537 1536 1531 1520 1516 1510 1512 1513 1517 1513 1513 1518 1517 1514 1509 1509 1509 1513 1517 1519 1524 1532 1535 1537 1537 1538 1540 1540 1542 1543 1544 1545 1547 1547 1550 1551 1551 1552 1553 1554 1554 1556 1556 1557 1558
1506 1513 1510 1514 1528 1540 1538 1522 1493 1496 1498 1508 1513 1509 1512 1513 1517 1515 1514 1511 1511 1512 1517 1520 1527 1529 1529 1531 1535 1537 1540 1539 1541 1541 1544 1544 1548 1547 1549 1550 1550 1551 1552 1554 1554 1554 1554 1554 1555
1492 1503 1514 1537 1532 1531 1532 1523 1497 1495 1495 1503 1509 1508 1511 1512 1514 1515 1513 1515 1518 1520 1522 1525 1527 1529 1530 1535 1538 1539 1537 1536 1538 1541 1544 1544 1547 1548 1549 1550 1550 1551 1551 1552 1553 1553 1554 1555 1556